OBJECT F, 61899

Orbit data source: Space-Track

You're viewing an Uncataloged Satellite

Recently launched and/or uncataloged satellites may have evolving metadata. Metadata may include but not limited to: Owner, Maufacturer, Bus, Motor, and Mission.

OBJECT F, 61899 is a satellite owned by Yunyao yuhang (CN) in SSO that was launched on Mon, 11 Nov 2024 UTC via a LIJIAN-1 launch vehicle from the Jiuquan Satellite Launch Center, China (JSC). Unknown objects in Earth's orbit typically refer to objects detected orbiting the Earth but have not yet been identified or cataloged. These objects could be anything from previously untracked satellites, spent rocket stages, debris from satellite collisions, or even natural meteoroids temporarily captured by Earth's gravity.

Loading next visibility...
OBJECT F details
Identifier
61899, 2024-205F
Orbit
SSO
Last TLE update7 hours ago
Origin
Flag of CNYunyao yuhang (CN / PRC)
ManufacturerYunyao yuhang
MissionOperational spacecraft
Bus & MotorYY-1, Unknown motor
Mass~50 kg wet, ~50 kg dry
Launch date (UTC)
2024-11-11 (1 week ago)
Launch vehicle
LIJIAN-1
Launch site
Jiuquan Satellite Launch Center, China (JSC)
Object typeUnknown
Shape & HBRUnknown
Radar Cross SectionMedium (>0.1 m² and <1 m²)

Expand to show TLE details & history

TLE from 7 hours ago
0 OBJECT F
1 61899U 24205F   24326.18880489  .00019543  00000-0  10550-2 0  9994
2 61899  97.4712  38.1903 0013046 248.0600 111.9245 15.14699263  1485
Epoch: 2024-11-21T04:31Z
Definitive object data (Epoch: 2024-11-21T04:31:52.742Z)
Latitude-0.0001°
Longitude-90.45357°
Altitude528.345 km
Speed7.597 km/s
True Right ascension02h 32m 45s
True Declination0° 00' 00"
Sunlit
Object was in full shadow at TLE epoch
Visualization TLE readout
Latitude73.4578°
Longitude115.87201°
Altitude541.596 km
Speed7.594 km/s
Apparent Right ascension19h 17m 23s
Apparent Declination22° 37' 01"
Sunlit
Object is in daylight
Visualization observer readout
Local Sidereal Time08:23:28
Azimuth16.921° NNE
Elevation-25.595°
Doppler factor1
Orbital elements
Apogee altitude527.865 km
Perigee altitude509.87 km
Semi-major axis6,897.004 km
Eccentricity0.0013046
Inclination97.4712°
RAAN38.1903°
Arg. of periapsis248.06°
True anomaly112.0631°
Mean anomaly111.9245°
Eccentric anomaly111.99381°
Mean motion3.78924 °/min
BSTAR0.001055
Orbital period95.01 mins
Loading maneuver chart data...
Loading historical data...
Loading historical data...
Loading historical data...
Loading historical data...
Loading historical data...
Loading historical data...
Loading historical data...

OBJECT F Visibility forecast

Observer location: undefined°, undefined

Span
Click to sort rows by Start time (UTC) header in descending order
Start Az.
Max El. time (UTC)
Max El. Az.
Max El.
End time (UTC)
End Az.
7 mins2024-11-21 17:46:08.098Z15.249° NNE2024-11-21 17:50:08.098Z139.344° SSE43.632°2024-11-21 17:53:08.098Z187.165° SSW
5 mins2024-11-22 04:28:08.098Z117.376° SE2024-11-22 04:30:08.098Z64.505° ENE27.255°2024-11-22 04:33:08.098Z10.135° NNE
|